| time (UTC) | temp F | wind direction | speed MPH | gust MPH | rain 1hr in | rain 24hr in | rain mn in | humidity % | barometer mb |
| 20260504233931 | 69 | 52 | 0.0 | 0.0 | 0.00 | 0.01 | 0.01 | 88 | 1018.2 |
| 20260504233431 | 68 | 70 | 0.0 | 0.0 | 0.00 | 0.01 | 0.01 | 89 | 1018.3 |
| 20260504232931 | 68 | 67 | 0.0 | 0.0 | 0.00 | 0.01 | 0.01 | 89 | 1018.3 |
| 20260504232431 | 68 | 71 | 0.0 | 1.0 | 0.00 | 0.01 | 0.01 | 89 | 1018.3 |
| 20260504231931 | 68 | 69 | 0.0 | 0.0 | 0.00 | 0.01 | 0.01 | 91 | 1018.4 |
| 20260504231431 | 67 | 66 | 0.0 | 0.0 | 0.00 | 0.01 | 0.01 | 93 | 1018.4 |
| 20260504230931 | 67 | 60 | 0.0 | 0.0 | 0.00 | 0.01 | 0.01 | 93 | 1018.3 |
| 20260504230431 | 67 | 71 | 0.0 | 0.0 | 0.00 | 0.01 | 0.01 | 95 | 1018.3 |
| 20260504225931 | 67 | 73 | 0.0 | 0.0 | 0.00 | 0.01 | 0.01 | 95 | 1018.3 |
| 20260504225431 | 66 | 65 | 0.0 | 0.0 | 0.00 | 0.01 | 0.01 | 95 | 1018.3 |
| 20260504224931 | 66 | 71 | 0.0 | 0.0 | 0.00 | 0.01 | 0.01 | 96 | 1018.4 |
| 20260504224431 | 66 | 68 | 0.0 | 0.0 | 0.00 | 0.01 | 0.01 | 95 | 1018.5 |
| 20260504223931 | 66 | 57 | 0.0 | 0.0 | 0.00 | 0.01 | 0.01 | 95 | 1018.4 |
| 20260504223431 | 66 | 74 | 0.0 | 0.0 | 0.00 | 0.01 | 0.01 | 96 | 1018.5 |
| 20260504222931 | 66 | 57 | 0.0 | 1.0 | 0.00 | 0.01 | 0.01 | 96 | 1018.4 |
| 20260504222431 | 66 | 67 | 0.0 | 0.0 | 0.00 | 0.01 | 0.01 | 96 | 1018.5 |
| 20260504221931 | 65 | 64 | 0.0 | 0.0 | 0.00 | 0.01 | 0.01 | 96 | 1018.3 |
| 20260504221431 | 65 | 74 | 0.0 | 0.0 | 0.00 | 0.01 | 0.01 | 96 | 1018.3 |
| 20260504220931 | 65 | 77 | 0.0 | 0.0 | 0.00 | 0.01 | 0.01 | 96 | 1018.3 |
| 20260504220431 | 65 | 77 | 0.0 | 0.0 | 0.00 | 0.01 | 0.01 | 96 | 1018.2 |
| 20260504215931 | 64 | 76 | 0.0 | 0.0 | 0.00 | 0.01 | 0.01 | 96 | 1018.3 |
| 20260504215431 | 64 | 72 | 0.0 | 0.0 | 0.00 | 0.01 | 0.01 | 95 | 1018.3 |
| 20260504214931 | 64 | 72 | 0.0 | 0.0 | 0.00 | 0.01 | 0.01 | 95 | 1018.3 |
| 20260504214431 | 64 | 77 | 0.0 | 0.0 | 0.00 | 0.01 | 0.01 | 95 | 1018.2 |
| 20260504213931 | 64 | 82 | 0.0 | 0.0 | 0.00 | 0.01 | 0.01 | 95 | 1018.2 |
| 20260504213431 | 64 | 88 | 0.0 | 0.0 | 0.00 | 0.01 | 0.01 | 95 | 1018.1 |
| 20260504212931 | 64 | 103 | 0.0 | 0.0 | 0.00 | 0.01 | 0.01 | 95 | 1018.0 |
| 20260504212431 | 64 | 105 | 0.0 | 0.0 | 0.00 | 0.01 | 0.01 | 95 | 1017.9 |
| 20260504211931 | 63 | 103 | 0.0 | 0.0 | 0.00 | 0.01 | 0.01 | 95 | 1017.8 |
| 20260504211431 | 63 | 86 | 0.0 | 0.0 | 0.00 | 0.01 | 0.01 | 95 | 1017.8 |
| 20260504210931 | 63 | 85 | 0.0 | 0.0 | 0.00 | 0.01 | 0.01 | 95 | 1017.8 |
| 20260504210431 | 63 | 85 | 0.0 | 0.0 | 0.00 | 0.01 | 0.01 | 95 | 1017.7 |
| 20260504205931 | 63 | 67 | 0.0 | 0.0 | 0.00 | 0.01 | 0.01 | 95 | 1017.7 |
| 20260504205431 | 63 | 84 | 0.0 | 0.0 | 0.00 | 0.01 | 0.01 | 95 | 1017.8 |
| 20260504204931 | 63 | 91 | 0.0 | 0.0 | 0.00 | 0.01 | 0.01 | 95 | 1017.6 |
| 20260504204431 | 63 | 92 | 0.0 | 0.0 | 0.00 | 0.01 | 0.01 | 95 | 1017.6 |
| 20260504203931 | 63 | 94 | 0.0 | 0.0 | 0.00 | 0.01 | 0.01 | 95 | 1017.6 |
| 20260504203431 | 63 | 98 | 0.0 | 0.0 | 0.00 | 0.01 | 0.01 | 95 | 1017.5 |
| 20260504202931 | 62 | 92 | 0.0 | 0.0 | 0.00 | 0.01 | 0.01 | 95 | 1017.4 |
| 20260504202431 | 62 | 92 | 0.0 | 0.0 | 0.00 | 0.01 | 0.01 | 95 | 1017.5 |
| 20260504201931 | 62 | 94 | 0.0 | 0.0 | 0.00 | 0.01 | 0.01 | 95 | 1017.6 |
| 20260504201431 | 62 | 96 | 0.0 | 0.0 | 0.00 | 0.01 | 0.01 | 95 | 1017.5 |
| 20260504200931 | 62 | 92 | 0.0 | 0.0 | 0.00 | 0.01 | 0.01 | 95 | 1017.5 |
| 20260504200431 | 62 | 96 | 0.0 | 0.0 | 0.00 | 0.01 | 0.01 | 95 | 1017.5 |
| 20260504195931 | 62 | 95 | 0.0 | 0.0 | 0.00 | 0.01 | 0.01 | 95 | 1017.4 |
| 20260504195431 | 62 | 94 | 0.0 | 0.0 | 0.00 | 0.01 | 0.01 | 95 | 1017.3 |
| 20260504194931 | 62 | 94 | 0.0 | 0.0 | 0.00 | 0.01 | 0.01 | 95 | 1017.3 |
| 20260504194431 | 62 | 95 | 0.0 | 0.0 | 0.00 | 0.01 | 0.01 | 95 | 1017.3 |
| 20260504193931 | 62 | 96 | 0.0 | 0.0 | 0.00 | 0.01 | 0.01 | 95 | 1017.2 |
| 20260504193431 | 62 | 94 | 0.0 | 0.0 | 0.00 | 0.01 | 0.01 | 95 | 1017.0 |
| 20260504192931 | 62 | 94 | 0.0 | 0.0 | 0.00 | 0.01 | 0.01 | 95 | 1017.0 |
| 20260504192431 | 62 | 94 | 0.0 | 0.0 | 0.00 | 0.01 | 0.01 | 95 | 1016.8 |
| 20260504191932 | 62 | 98 | 0.0 | 0.0 | 0.00 | 0.01 | 0.01 | 95 | 1016.8 |
| 20260504191431 | 62 | 98 | 0.0 | 0.0 | 0.01 | 0.01 | 0.01 | 95 | 1016.7 |
| 20260504190931 | 62 | 102 | 0.0 | 0.0 | 0.01 | 0.01 | 0.01 | 95 | 1016.8 |
| 20260504190431 | 62 | 105 | 0.0 | 0.0 | 0.01 | 0.01 | 0.01 | 95 | 1016.8 |
| 20260504185931 | 62 | 96 | 0.0 | 0.0 | 0.01 | 0.01 | 0.01 | 95 | 1016.8 |
| 20260504185431 | 62 | 94 | 0.0 | 0.0 | 0.01 | 0.01 | 0.01 | 95 | 1016.7 |
| 20260504184932 | 62 | 102 | 0.0 | 0.0 | 0.01 | 0.01 | 0.01 | 94 | 1016.6 |
| 20260504184431 | 62 | 92 | 0.0 | 0.0 | 0.01 | 0.01 | 0.01 | 94 | 1016.6 |
| 20260504183931 | 62 | 98 | 0.0 | 0.0 | 0.01 | 0.01 | 0.01 | 94 | 1016.6 |
| 20260504183431 | 63 | 96 | 0.0 | 0.0 | 0.01 | 0.01 | 0.01 | 95 | 1016.6 |
| 20260504182931 | 63 | 88 | 0.0 | 0.0 | 0.01 | 0.01 | 0.01 | 95 | 1016.6 |
| 20260504182431 | 62 | 92 | 0.0 | 0.0 | 0.01 | 0.01 | 0.01 | 95 | 1016.6 |
| 20260504181931 | 62 | 88 | 0.0 | 0.0 | 0.01 | 0.01 | 0.01 | 95 | 1016.6 |
| 20260504181431 | 62 | 98 | 0.0 | 0.0 | 0.00 | 0.00 | 0.00 | 94 | 1016.6 |
| 20260504180932 | 62 | 84 | 0.0 | 0.0 | 0.00 | 0.00 | 0.00 | 94 | 1016.6 |
| 20260504180432 | 62 | 83 | 0.0 | 0.0 | 0.00 | 0.00 | 0.00 | 94 | 1016.6 |
| 20260504175931 | 62 | 83 | 0.0 | 0.0 | 0.00 | 0.00 | 0.00 | 94 | 1016.7 |
| 20260504175431 | 62 | 82 | 0.0 | 0.0 | 0.00 | 0.00 | 0.00 | 94 | 1016.6 |
| 20260504174931 | 62 | 81 | 0.0 | 0.0 | 0.00 | 0.00 | 0.00 | 94 | 1016.6 |
| 20260504174432 | 62 | 81 | 0.0 | 0.0 | 0.00 | 0.00 | 0.00 | 94 | 1016.5 |
| 20260504173932 | 62 | 83 | 0.0 | 0.0 | 0.00 | 0.00 | 0.00 | 94 | 1016.5 |
| 20260504173432 | 62 | 81 | 0.0 | 0.0 | 0.00 | 0.00 | 0.00 | 94 | 1016.5 |
| 20260504172932 | 62 | 68 | 0.0 | 0.0 | 0.00 | 0.00 | 0.00 | 93 | 1016.6 |
| 20260504172432 | 62 | 62 | 0.0 | 0.0 | 0.00 | 0.00 | 0.00 | 93 | 1016.7 |
| 20260504171932 | 62 | 27 | 0.0 | 0.0 | 0.00 | 0.00 | 0.00 | 93 | 1016.7 |
| 20260504171432 | 62 | 28 | 0.0 | 0.0 | 0.00 | 0.00 | 0.00 | 94 | 1016.6 |
| 20260504170932 | 62 | 26 | 0.0 | 0.0 | 0.00 | 0.00 | 0.00 | 94 | 1016.6 |
| 20260504170432 | 62 | 25 | 0.0 | 0.0 | 0.00 | 0.00 | 0.00 | 92 | 1016.5 |
| 20260504160432 | 66 | 26 | 0.0 | 0.0 | 0.00 | 0.00 | 0.00 | 92 | 1016.9 |
| 20260504150932 | 66 | 32 | 0.0 | 2.0 | 0.00 | 0.00 | 0.00 | 92 | 1017.3 |
| 20260504150432 | 66 | 25 | 0.0 | 1.0 | 0.00 | 0.00 | 0.00 | 92 | 1017.3 |
| 20260504140932 | 66 | 28 | 1.0 | 3.0 | 0.00 | 0.00 | 0.00 | 93 | 1017.6 |
| 20260504140432 | 66 | 26 | 0.0 | 1.0 | 0.00 | 0.00 | 0.00 | 93 | 1017.6 |
| 20260504130432 | 67 | 23 | 1.0 | 3.0 | 0.00 | 0.01 | 0.00 | 92 | 1018.0 |
| 20260504110432 | 68 | 33 | 2.0 | 4.0 | 0.00 | 0.01 | 0.00 | 87 | 1018.5 |
| 20260504100432 | 69 | 25 | 1.0 | 4.0 | 0.00 | 0.01 | 0.00 | 85 | 1018.3 |
| 20260504081932 | 72 | 22 | 0.0 | 3.0 | 0.00 | 0.01 | 0.00 | 76 | 1016.8 |
| 20260504081432 | 72 | 24 | 1.0 | 4.0 | 0.00 | 0.01 | 0.00 | 75 | 1016.8 |
| 20260504080932 | 72 | 27 | 0.0 | 3.0 | 0.00 | 0.01 | 0.00 | 75 | 1016.7 |
| 20260504080432 | 72 | 22 | 0.0 | 3.0 | 0.00 | 0.01 | 0.00 | 74 | 1016.7 |
| 20260504050433 | 77 | 16 | 1.0 | 4.0 | 0.00 | 0.01 | 0.00 | 60 | 1015.8 |
| 20260504045933 | 77 | 19 | 1.0 | 5.0 | 0.00 | 0.01 | 0.00 | 61 | 1016.0 |
| 20260504045433 | 77 | 13 | 2.0 | 7.0 | 0.00 | 0.01 | 0.00 | 61 | 1016.0 |
| 20260504044933 | 77 | 25 | 2.0 | 5.0 | 0.00 | 0.01 | 0.00 | 60 | 1016.1 |
| 20260504044433 | 77 | 24 | 2.0 | 4.0 | 0.00 | 0.01 | 0.00 | 60 | 1016.0 |
| 20260504043933 | 78 | 22 | 2.0 | 6.0 | 0.00 | 0.01 | 0.00 | 60 | 1016.1 |
| 20260504043433 | 78 | 17 | 2.0 | 5.0 | 0.00 | 0.01 | 0.00 | 60 | 1016.1 |
| 20260504042933 | 78 | 17 | 2.0 | 7.0 | 0.00 | 0.01 | 0.00 | 59 | 1016.1 |
| 20260504042433 | 78 | 9 | 1.0 | 4.0 | 0.00 | 0.01 | 0.00 | 60 | 1016.1 |
| 20260504041933 | 78 | 18 | 1.0 | 3.0 | 0.00 | 0.01 | 0.00 | 60 | 1016.1 |
| 20260504041433 | 78 | 18 | 1.0 | 3.0 | 0.00 | 0.01 | 0.00 | 60 | 1016.1 |
| 20260504040933 | 77 | 17 | 1.0 | 3.0 | 0.00 | 0.01 | 0.00 | 60 | 1016.2 |
| 20260504040433 | 77 | 21 | 1.0 | 7.0 | 0.00 | 0.01 | 0.00 | 61 | 1016.1 |
| 20260504035933 | 77 | 20 | 1.0 | 4.0 | 0.00 | 0.01 | 0.00 | 61 | 1016.1 |
| 20260504035433 | 77 | 59 | 0.0 | 3.0 | 0.00 | 0.01 | 0.00 | 61 | 1016.1 |
| 20260504034933 | 77 | 24 | 1.0 | 1.0 | 0.00 | 0.01 | 0.00 | 62 | 1016.2 |
| 20260504034433 | 77 | 24 | 1.0 | 3.0 | 0.00 | 0.01 | 0.00 | 61 | 1016.3 |
| 20260504033933 | 77 | 20 | 1.0 | 4.0 | 0.00 | 0.01 | 0.00 | 61 | 1016.4 |
| 20260504033433 | 77 | 20 | 2.0 | 4.0 | 0.00 | 0.01 | 0.00 | 60 | 1016.3 |
| 20260504032933 | 77 | 22 | 4.0 | 8.0 | 0.00 | 0.01 | 0.00 | 59 | 1016.4 |
| 20260504032433 | 78 | 22 | 5.0 | 9.0 | 0.00 | 0.01 | 0.00 | 57 | 1016.4 |
| 20260504031933 | 80 | 19 | 4.0 | 9.0 | 0.00 | 0.01 | 0.00 | 54 | 1016.5 |
| 20260504031433 | 81 | 17 | 3.0 | 9.0 | 0.00 | 0.01 | 0.00 | 53 | 1016.5 |
| 20260504030933 | 81 | 64 | 3.0 | 8.0 | 0.00 | 0.01 | 0.00 | 56 | 1016.5 |
| 20260504030433 | 81 | 65 | 2.0 | 5.0 | 0.00 | 0.01 | 0.00 | 55 | 1016.5 |
| 20260504025933 | 81 | 67 | 2.0 | 6.0 | 0.00 | 0.01 | 0.00 | 56 | 1016.6 |
| 20260504025433 | 81 | 14 | 2.0 | 4.0 | 0.00 | 0.01 | 0.00 | 54 | 1016.7 |
| 20260504024933 | 81 | 71 | 2.0 | 8.0 | 0.00 | 0.01 | 0.00 | 54 | 1016.9 |
| 20260504024433 | 80 | 69 | 2.0 | 6.0 | 0.00 | 0.01 | 0.00 | 54 | 1016.9 |
| 20260504023933 | 80 | 17 | 3.0 | 5.0 | 0.00 | 0.01 | 0.00 | 53 | 1016.9 |
| 20260504023433 | 80 | 52 | 3.0 | 9.0 | 0.00 | 0.01 | 0.00 | 53 | 1017.0 |
| 20260504022933 | 81 | 69 | 1.0 | 4.0 | 0.00 | 0.01 | 0.00 | 54 | 1017.0 |
| 20260504022433 | 80 | 24 | 2.0 | 4.0 | 0.00 | 0.01 | 0.00 | 52 | 1017.1 |
| 20260504021933 | 80 | 57 | 2.0 | 5.0 | 0.00 | 0.01 | 0.00 | 56 | 1017.3 |
| 20260504021433 | 80 | 5 | 2.0 | 6.0 | 0.00 | 0.01 | 0.00 | 56 | 1017.3 |
| 20260504020933 | 79 | 33 | 2.0 | 5.0 | 0.00 | 0.01 | 0.00 | 58 | 1017.4 |
| 20260504020433 | 79 | 26 | 3.0 | 6.0 | 0.00 | 0.01 | 0.00 | 60 | 1017.5 |
| 20260504015933 | 78 | 63 | 3.0 | 9.0 | 0.00 | 0.01 | 0.00 | 62 | 1017.5 |
| 20260504015433 | 78 | 13 | 3.0 | 9.0 | 0.00 | 0.01 | 0.00 | 62 | 1017.6 |
| 20260504014933 | 77 | 70 | 2.0 | 6.0 | 0.00 | 0.01 | 0.00 | 64 | 1017.6 |
| 20260504014433 | 76 | 37 | 1.0 | 4.0 | 0.00 | 0.01 | 0.00 | 68 | 1017.8 |
| 20260504013933 | 75 | 17 | 1.0 | 2.0 | 0.00 | 0.01 | 0.00 | 68 | 1018.0 |
| 20260504013433 | 75 | 23 | 2.0 | 4.0 | 0.00 | 0.01 | 0.00 | 69 | 1018.2 |
| 20260504012933 | 75 | 17 | 3.0 | 5.0 | 0.00 | 0.01 | 0.00 | 69 | 1018.3 |
| 20260504012433 | 75 | 17 | 5.0 | 10.0 | 0.00 | 0.01 | 0.00 | 69 | 1018.4 |
| 20260504011933 | 75 | 15 | 3.0 | 10.0 | 0.00 | 0.01 | 0.00 | 67 | 1018.4 |
| 20260504011433 | 75 | 24 | 1.0 | 8.0 | 0.00 | 0.01 | 0.00 | 71 | 1018.4 |
| 20260504010933 | 74 | 19 | 1.0 | 3.0 | 0.00 | 0.01 | 0.00 | 72 | 1018.6 |
| 20260504010433 | 74 | 21 | 2.0 | 5.0 | 0.00 | 0.01 | 0.00 | 72 | 1018.6 |
| 20260504005933 | 74 | 19 | 3.0 | 7.0 | 0.00 | 0.01 | 0.00 | 72 | 1018.6 |
| 20260504005433 | 74 | 22 | 2.0 | 8.0 | 0.00 | 0.01 | 0.00 | 73 | 1018.8 |
| 20260504004933 | 73 | 20 | 1.0 | 3.0 | 0.00 | 0.01 | 0.00 | 75 | 1018.9 |
| 20260504004433 | 73 | 20 | 1.0 | 4.0 | 0.00 | 0.01 | 0.00 | 76 | 1018.9 |
| 20260504003933 | 72 | 19 | 2.0 | 3.0 | 0.00 | 0.01 | 0.00 | 78 | 1019.0 |
| 20260504003433 | 72 | 28 | 3.0 | 6.0 | 0.00 | 0.01 | 0.00 | 79 | 1019.1 |
| 20260504002933 | 72 | 20 | 3.0 | 9.0 | 0.00 | 0.01 | 0.00 | 78 | 1019.1 |
| 20260504002433 | 72 | 17 | 3.0 | 9.0 | 0.00 | 0.01 | 0.00 | 79 | 1019.0 |
| 20260504001933 | 72 | 27 | 3.0 | 9.0 | 0.00 | 0.01 | 0.00 | 79 | 1019.2 |
| 20260504001433 | 72 | 24 | 3.0 | 5.0 | 0.00 | 0.01 | 0.00 | 80 | 1019.2 |
| 20260504000933 | 72 | 17 | 4.0 | 7.0 | 0.00 | 0.01 | 0.00 | 80 | 1019.3 |
| 20260504000433 | 71 | 20 | 4.0 | 9.0 | 0.00 | 0.01 | 0.00 | 81 | 1019.4 |
| 20260503235933 | 71 | 28 | 2.0 | 11.0 | 0.00 | 0.01 | 0.00 | 82 | 1019.4 |
| 20260503235433 | 70 | 27 | 1.0 | 3.0 | 0.00 | 0.01 | 0.00 | 83 | 1019.5 |
| 20260503234933 | 70 | 17 | 1.0 | 3.0 | 0.00 | 0.01 | 0.00 | 83 | 1019.6 |
| 20260503234433 | 70 | 25 | 1.0 | 3.0 | 0.00 | 0.01 | 0.00 | 83 | 1019.6 |